Location: Berbisdorf
(50.7638°N, 12.9442°E)
Time: 02:46:42
(UTC+00:00)

BREEZE-M DEB (TANK) - Pass Details

Date: 05 October 2020
Orbit: 333 x 12040 km, 49.7° (Epoch: 19 October)

Event Time Altitude Azimuth Distance (km) Brightness Sun altitude
Rises 04:37:41 0° 218° (SW) 15,573 9.1 -6.8°
Reaches altitude 10° 04:52:09 10° 218° (SW) 15,517 9.1 -4.5°
Maximum altitude 06:26:50 78° 152° (SSE) 7,239 8.1 10.1°
Drops below altitude 10° 06:51:41 10° 73° (ENE) 5,913 8.2 13.7°
Sets 06:54:23 0° 73° (ENE) 6,282 8.2 14.1°
